Stations météo

réclame
Mon MeteoGroup
Uppsala, Suède (2458): Température de l'air & dewpoint: 11.02.2019 13:00:00 - 17.02.2019 13:00:00 (CET)Uppsala, Suède (2458): Vitesse du vent & gusts: 11.02.2019 13:00:00 - 17.02.2019 13:00:00 (CET)Uppsala, Suède (2458): Direction du vent: 11.02.2019 13:00:00 - 17.02.2019 13:00:00 (CET)Uppsala, Suède (2458): reduced air pressure: 11.02.2019 13:00:00 - 17.02.2019 13:00:00 (CET)Uppsala, Suède (2458): visibility: 11.02.2019 13:00:00 - 17.02.2019 13:00:00 (CET)Uppsala, Suède (2458): Quantités de précipitations: 11.02.2019 13:00:00 - 17.02.2019 13:00:00 (CET)
Date & Time tt [°C] td [°C] ff [km/h] ff [knt] fx [km/h] fx [knt] dd ppp [hPa] vv [km] rr [mm]
17.02.2019 13:00:00 3,0 -4,0 4 2 - - - - 10 -
17.02.2019 12:00:00 2,3 -3,0 4 2 11 6 NW 1020,2 10 0,0
17.02.2019 11:00:00 1,1 -2,4 8 4 11 6 NW 1019,5 10 0,0
17.02.2019 10:00:00 -0,1 -3,0 5 3 11 6 NW 1019,1 10 0,0
17.02.2019 09:00:00 -1,9 -3,9 2 1 11 6 WNW 1018,9 10 0,0
17.02.2019 08:00:00 -2,4 -4,6 0 0 11 6 N 1018,3 10 0,0
17.02.2019 07:00:00 -1,7 -4,9 5 3 14 8 WNW 1017,8 10 0,0
17.02.2019 06:00:00 -2,4 -4,0 9 5 11 6 W 1016,9 10 0,0
17.02.2019 05:00:00 -2,4 -3,2 5 3 11 6 NNW 1016,7 10 0,0
17.02.2019 04:00:00 -1,8 -2,9 8 4 11 6 W 1016,5 10 0,0
17.02.2019 03:00:00 -0,1 -2,3 5 3 11 6 W 1016,0 10 0,0
17.02.2019 02:00:00 -0,4 -1,5 5 3 14 8 NW 1015,2 10 0,0
17.02.2019 01:00:00 0,3 -0,7 13 7 14 8 NW 1014,2 10 0,0
17.02.2019 00:00:00 0,5 -0,5 2 1 14 8 - 1013,6 10 0,0
16.02.2019 23:00:00 1,0 0,1 11 6 18 10 NW 1013,0 9 0,0
16.02.2019 22:00:00 2,2 1,0 11 6 18 10 W 1012,1 7 0,0
16.02.2019 21:00:00 2,4 1,4 9 5 18 10 W 1011,1 8 0,0
16.02.2019 20:00:00 3,0 1,7 9 5 18 10 W 1010,3 7 0,0
16.02.2019 19:00:00 3,6 2,0 13 7 22 12 WSW 1009,8 9 0,0
16.02.2019 18:00:00 4,6 2,1 15 8 29 16 W 1008,8 10 0,0
16.02.2019 17:00:00 5,1 2,3 22 12 40 21 W 1008,7 10 0,0
16.02.2019 16:00:00 5,4 1,9 31 17 47 25 W 1007,7 10 0,0
16.02.2019 15:00:00 6,4 1,9 26 14 43 23 SW 1006,9 10 0,0
16.02.2019 14:00:00 6,0 1,3 24 13 40 21 WSW 1007,2 10 0,0
16.02.2019 13:00:00 6,2 1,1 28 15 40 21 WSW 1007,8 10 0,0
16.02.2019 12:00:00 6,0 0,7 26 14 40 21 WSW 1008,1 10 0,0
16.02.2019 11:00:00 5,9 0,6 24 13 40 21 SW 1008,6 10 0,0
16.02.2019 10:00:00 5,3 0,5 35 19 43 23 WSW 1009,4 10 0,0
16.02.2019 09:00:00 4,2 -0,2 28 15 43 23 WSW 1009,6 10 0,0
16.02.2019 08:00:00 3,7 -0,5 31 17 43 23 WSW 1010,2 10 0,0
16.02.2019 07:00:00 3,5 -0,9 29 16 43 23 WSW 1010,4 10 0,0
16.02.2019 06:00:00 3,6 -0,8 29 16 43 23 SW 1010,7 10 0,0
16.02.2019 05:00:00 3,7 -0,7 28 15 40 21 SW 1011,7 10 0,0
16.02.2019 04:00:00 4,1 0,1 26 14 36 19 SW 1012,2 10 0,0
16.02.2019 03:00:00 3,4 -0,2 18 10 36 19 SW 1012,9 10 0,0
16.02.2019 02:00:00 3,7 -0,5 21 11 36 19 SW 1014,0 10 0,0
16.02.2019 01:00:00 3,0 0,2 22 12 32 18 SW 1014,7 10 0,0
16.02.2019 00:00:00 3,0 0,6 15 8 29 16 WSW 1015,6 10 0,0
15.02.2019 23:00:00 2,9 1,0 22 12 36 19 WSW 1016,4 10 0,0
15.02.2019 22:00:00 2,9 1,3 22 12 32 18 SW 1017,0 10 0,0
15.02.2019 21:00:00 2,8 1,6 13 7 25 14 WSW 1017,7 10 0,0
15.02.2019 20:00:00 3,1 1,9 11 6 32 18 WSW 1018,6 10 0,0
15.02.2019 19:00:00 3,3 2,1 16 9 32 18 WSW 1018,8 10 0,0
15.02.2019 18:00:00 3,9 2,4 16 9 29 16 WSW 1019,2 10 0,0
15.02.2019 17:00:00 4,4 2,7 15 8 25 14 WSW 1019,3 10 0,0
15.02.2019 16:00:00 5,6 3,4 11 6 22 12 SW 1019,6 10 0,0
15.02.2019 15:00:00 6,3 3,6 9 5 25 14 SSW 1019,9 10 0,0
15.02.2019 14:00:00 6,8 3,9 13 7 22 12 SW 1020,5 10 0,0
15.02.2019 13:00:00 6,1 3,8 13 7 25 14 WSW 1021,0 10 0,0
15.02.2019 12:00:00 5,5 3,5 16 9 29 16 WSW 1021,3 10 0,0
15.02.2019 11:00:00 5,3 3,5 15 8 25 14 WSW 1021,4 10 0,0
15.02.2019 10:00:00 4,5 3,2 16 9 25 14 WSW 1021,3 10 0,0
15.02.2019 09:00:00 3,6 2,7 11 6 22 12 WSW 1021,3 10 0,0
15.02.2019 08:00:00 2,9 2,3 11 6 22 12 SW 1021,3 10 0,0
15.02.2019 07:00:00 2,7 2,3 13 7 22 12 SW 1021,0 10 0,0
15.02.2019 06:00:00 2,8 2,1 18 10 25 14 WSW 1021,0 10 0,0
15.02.2019 05:00:00 2,8 1,9 8 4 18 10 SW 1021,3 10 0,0
15.02.2019 04:00:00 3,2 2,0 9 5 18 10 SW 1021,3 10 0,0
15.02.2019 03:00:00 3,5 2,3 13 7 25 14 WSW 1021,2 10 0,0
15.02.2019 02:00:00 3,7 2,4 15 8 22 12 WSW 1020,9 10 0,0
15.02.2019 01:00:00 3,4 2,2 9 5 18 10 WSW 1021,0 10 0,0
15.02.2019 00:00:00 3,9 2,4 13 7 18 10 WSW 1020,4 10 0,0
14.02.2019 23:00:00 4,0 2,5 11 6 22 12 WSW 1020,3 10 0,0
14.02.2019 22:00:00 4,1 2,6 11 6 25 14 WSW 1020,0 10 0,0
14.02.2019 21:00:00 4,5 2,8 15 8 25 14 W 1019,6 10 0,0
14.02.2019 20:00:00 4,7 2,9 16 9 32 18 W 1019,0 10 0,0
14.02.2019 19:00:00 4,9 3,1 26 14 32 18 WSW 1018,4 10 0,0
14.02.2019 18:00:00 5,1 3,3 22 12 43 23 WSW 1018,0 10 0,0
14.02.2019 17:00:00 5,2 3,5 31 17 47 25 WSW 1017,5 10 0,0
14.02.2019 16:00:00 5,2 3,5 28 15 40 21 WSW 1016,9 10 0,0
14.02.2019 15:00:00 5,0 3,3 26 14 43 23 SW 1018,1 10 0,0
14.02.2019 14:00:00 4,5 3,2 26 14 40 21 WSW 1018,3 10 0,0
14.02.2019 13:00:00 4,1 2,9 22 12 32 18 SW 1019,2 10 0,0
14.02.2019 12:00:00 3,7 2,7 21 11 32 18 SW 1020,3 10 0,0
14.02.2019 11:00:00 3,1 2,2 16 9 29 16 SW 1020,6 10 0,0
14.02.2019 10:00:00 2,5 1,6 18 10 36 19 SW 1021,3 10 0,0
14.02.2019 09:00:00 1,5 0,3 22 12 32 18 SW 1021,0 10 0,0
14.02.2019 08:00:00 0,7 -1,1 16 9 25 14 SW 1021,1 10 0,0
14.02.2019 07:00:00 0,5 -1,7 18 10 25 14 SW 1020,8 10 0,0
14.02.2019 06:00:00 0,2 -2,3 15 8 25 14 SSW 1021,4 10 0,0
14.02.2019 05:00:00 -0,1 -2,8 8 4 14 8 SE 1020,8 10 0,0
14.02.2019 04:00:00 -0,6 -3,0 5 3 7 4 S 1021,1 10 0,0
14.02.2019 03:00:00 0,3 -3,1 4 2 11 6 - 1021,5 10 0,0
14.02.2019 02:00:00 -1,6 -3,2 5 3 7 4 S 1020,8 10 0,0
14.02.2019 01:00:00 1,4 -2,2 2 1 11 6 - 1020,2 10 0,0
14.02.2019 00:00:00 3,2 -1,6 13 7 18 10 WNW 1020,0 10 0,0
13.02.2019 23:00:00 4,4 -1,2 13 7 22 12 WNW 1019,9 10 0,0
13.02.2019 22:00:00 4,6 -1,2 13 7 29 16 WNW 1019,2 10 0,0
13.02.2019 21:00:00 5,0 -1,2 21 11 36 19 W 1019,0 10 0,0
13.02.2019 20:00:00 5,4 -0,9 26 14 40 21 WNW 1017,9 10 0,0
13.02.2019 19:00:00 5,7 -0,4 22 12 40 21 W 1016,9 10 0,0
13.02.2019 18:00:00 5,9 0,0 18 10 36 19 W 1015,8 10 0,0
13.02.2019 17:00:00 5,3 0,3 18 10 29 16 WSW 1014,7 10 0,0
13.02.2019 16:00:00 6,2 0,1 18 10 29 16 WSW 1013,5 10 0,0
13.02.2019 15:00:00 5,7 0,3 16 9 22 12 WSW 1012,9 10 0,0
13.02.2019 14:00:00 6,0 0,3 11 6 18 10 SW 1012,2 10 0,0
13.02.2019 13:00:00 6,4 0,5 11 6 22 12 WSW 1011,6 10 0,0
13.02.2019 12:00:00 5,4 0,2 11 6 25 14 NW 1011,2 10 0,0
13.02.2019 11:00:00 4,7 0,8 16 9 25 14 NW 1010,8 10 0,0
13.02.2019 10:00:00 3,4 1,0 15 8 22 12 NW 1009,3 10 0,0
13.02.2019 09:00:00 2,5 1,2 13 7 22 12 WNW 1007,8 10 0,0
13.02.2019 08:00:00 1,6 1,5 13 7 18 10 W 1006,8 10 0,0
13.02.2019 07:00:00 1,9 1,9 4 2 7 4 W 1005,2 10 0,0
13.02.2019 06:00:00 1,8 1,8 5 3 18 10 W 1005,1 10 0,0
13.02.2019 05:00:00 1,3 1,3 15 8 18 10 WSW 1004,8 7 0,0
13.02.2019 04:00:00 0,8 0,8 9 5 22 12 SW 1005,2 3,4 0,0
13.02.2019 03:00:00 0,4 0,4 15 8 25 14 SSW 1006,2 3,1 0,0
13.02.2019 02:00:00 0,0 -0,1 18 10 29 16 SSW 1007,9 10 0,2
13.02.2019 01:00:00 -0,4 -0,7 21 11 29 16 SSW 1008,8 7 0,2
13.02.2019 00:00:00 -0,6 -0,9 21 11 25 14 SSW 1011,0 7 0,4
12.02.2019 23:00:00 -1,2 -1,8 16 9 25 14 SW 1012,9 3,1 0,3
12.02.2019 22:00:00 -0,9 -5,7 15 8 22 12 SW 1014,0 10 0,0
12.02.2019 21:00:00 -1,3 -6,8 16 9 25 14 SW 1015,1 10 0,0
12.02.2019 20:00:00 -1,4 -6,7 16 9 25 14 WSW 1015,7 10 0,0
12.02.2019 19:00:00 -1,9 -6,6 9 5 14 8 SSW 1016,3 10 0,0
12.02.2019 18:00:00 -1,8 -6,7 11 6 14 8 SW 1016,7 10 0,0
12.02.2019 17:00:00 -2,0 -6,9 9 5 25 14 WSW 1017,0 10 0,0
12.02.2019 16:00:00 0,0 -6,8 15 8 32 18 WNW 1017,2 10 0,0
12.02.2019 15:00:00 1,0 -6,1 16 9 29 16 W 1016,9 10 0,0
12.02.2019 14:00:00 1,1 -6,0 16 9 25 14 WNW 1016,7 10 0,0
12.02.2019 13:00:00 0,5 -5,9 22 12 32 18 WNW 1016,2 10 0,0
12.02.2019 12:00:00 -0,1 -6,3 21 11 29 16 WNW 1015,9 10 0,0
12.02.2019 11:00:00 -0,9 -6,5 16 9 32 18 NW 1015,6 10 0,0
12.02.2019 10:00:00 -1,8 -6,7 18 10 25 14 NW 1015,3 10 0,0
12.02.2019 09:00:00 -3,2 -7,2 21 11 25 14 WNW 1014,8 10 0,0
12.02.2019 08:00:00 -3,4 -7,0 22 12 32 18 WNW 1014,0 10 0,0
12.02.2019 07:00:00 -3,5 -6,8 16 9 25 14 WNW 1013,4 10 0,0
12.02.2019 06:00:00 -3,6 -6,5 15 8 22 12 WNW 1012,7 10 0,0
12.02.2019 05:00:00 -3,4 -6,4 18 10 25 14 NW 1012,3 10 0,0
12.02.2019 04:00:00 -2,9 -6,0 16 9 25 14 NW 1011,6 10 0,0
12.02.2019 03:00:00 -2,5 -6,0 16 9 25 14 NNW 1010,6 10 0,0
12.02.2019 02:00:00 -2,5 -5,6 16 9 29 16 NNW 1009,3 10 0,0
12.02.2019 01:00:00 -2,9 -5,7 21 11 25 14 NW 1008,3 10 0,0
12.02.2019 00:00:00 -2,4 -5,7 21 11 29 16 NW 1007,1 10 0,0
11.02.2019 23:00:00 -2,3 -5,8 21 11 29 16 NW 1006,1 10 0,0
11.02.2019 22:00:00 -2,5 -5,3 18 10 25 14 NW 1005,3 10 0,0
11.02.2019 21:00:00 -2,3 -5,0 16 9 22 12 NW 1004,4 10 0,0
11.02.2019 20:00:00 -2,0 -4,5 16 9 22 12 NW 1003,7 10 0,0
11.02.2019 19:00:00 -1,6 -4,3 16 9 25 14 NW 1002,9 10 0,0
11.02.2019 18:00:00 -1,0 -4,0 18 10 29 16 NW 1002,3 10 0,0
11.02.2019 17:00:00 -0,3 -3,7 15 8 29 16 NW 1001,4 10 0,0
11.02.2019 16:00:00 0,8 -3,1 15 8 36 19 NNW 1000,2 10 0,0
11.02.2019 15:00:00 1,2 -3,3 24 13 36 19 N 999,5 10 0,0
11.02.2019 14:00:00 1,0 -2,8 24 13 36 19 N 998,7 10 0,0
11.02.2019 13:00:00 0,8 -2,4 29 16 36 19 NNW 998,2 10 0,0

tt = Température de l'air
td = dewpoint
ff = Vitesse du vent
fx = gusts
dd = Direction du vent
ppp = reduced air pressure
vv = visibility
rr = Quantités de précipitations

stations d'obs. à proximité